Total_Precipitation_Accumulation
0.01 0.00 0.00 0.00 0.00 0.00 0.00 0.00 0.00 0.00 0.00 0.00 0.00 0.00 0.00 0.00 0.00 0.00 0.00 0.00 0.00 0.00 0.00 0.00 0.00 0.00 0.00 0.00 0.00 0.00 0.00 0.00 0.00 0.00 0.00 0.00 0.00 0.00 0.00 0.00 0.00 0.00 0.00 0.00 0.00 0.00 0.00
0.03 0.00 0.00 0.00 0.00 0.00 0.00 0.00 0.00 0.00 0.00 0.00 0.00 0.00 0.00 0.00 0.00 0.00 0.00 0.00 0.00 0.00 0.00 0.00 0.00 0.00 0.00 0.00 0.00 0.00 0.00 0.00 0.00 0.00 0.00 0.00 0.00 0.00 0.00 0.00 0.00 0.00 0.00 0.00 0.00 0.00 0.00
0.05 0.05 0.02 0.00 0.00 0.00 0.00 0.00 0.00 0.00 0.00 0.00 0.00 0.00 0.00 0.00 0.00 0.00 0.00 0.00 0.00 0.00 0.00 0.00 0.00 0.00 0.00 0.00 0.00 0.00 0.00 0.00 0.00 0.00 0.00 0.00 0.00 0.00 0.00 0.00 0.00 0.00 0.00 0.00 0.00 0.00 0.00
0.17 0.08 0.05 0.03 0.01 0.00 0.00 0.00 0.00 0.00 0.00 0.00 0.00 0.00 0.00 0.00 0.00 0.00 0.00 0.00 0.00 0.00 0.00 0.00 0.00 0.00 0.00 0.00 0.00 0.00 0.00 0.00 0.00 0.00 0.00 0.00 0.00 0.00 0.00 0.00 0.00 0.00 0.00 0.00 0.00 0.00 0.00
0.26 0.27 0.15 0.07 0.06 0.03 0.01 0.00 0.00 0.00 0.00 0.00 0.00 0.00 0.00 0.00 0.00 0.00 0.00 0.00 0.00 0.00 0.00 0.00 0.00 0.00 0.00 0.00 0.00 0.00 0.00 0.00 0.00 0.00 0.00 0.00 0.00 0.00 0.00 0.00 0.00 0.00 0.00 0.00 0.00 0.00 0.00
0.02 0.11 0.21 0.17 0.11 0.09 0.05 0.03 0.02 0.01 0.00 0.00 0.00 0.00 0.00 0.00 0.00 0.00 0.00 0.00 0.00 0.00 0.00 0.00 0.00 0.00 0.00 0.00 0.00 0.00 0.00 0.00 0.00 0.00 0.00 0.00 0.00 0.00 0.00 0.00 0.00 0.00 0.00 0.00 0.00 0.00 0.00
0.00 0.00 0.01 0.05 0.09 0.09 0.07 0.05 0.04 0.03 0.02 0.01 0.00 0.00 0.00 0.00 0.00 0.00 0.00 0.00 0.00 0.00 0.00 0.00 0.00 0.00 0.00 0.00 0.00 0.00 0.00 0.00 0.00 0.00 0.00 0.00 0.00 0.00 0.00 0.00 0.00 0.00 0.00 0.00 0.00 0.00 0.00
0.00 0.00 0.00 0.00 0.00 0.01 0.05 0.05 0.04 0.05 0.05 0.03 0.01 0.00 0.00 0.00 0.00 0.00 0.00 0.00 0.00 0.00 0.00 0.00 0.00 0.00 0.00 0.00 0.00 0.00 0.00 0.00 0.00 0.00 0.00 0.00 0.00 0.00 0.00 0.00 0.00 0.00 0.00 0.00 0.00 0.00 0.00
0.00 0.00 0.00 0.00 0.00 0.00 0.01 0.01 0.02 0.03 0.04 0.05 0.04 0.02 0.00 0.00 0.00 0.00 0.00 0.00 0.00 0.00 0.00 0.00 0.00 0.00 0.00 0.00 0.00 0.00 0.00 0.00 0.00 0.00 0.00 0.00 0.00 0.00 0.00 0.00 0.00 0.00 0.00 0.00 0.00 0.00 0.00
0.01 0.01 0.00 0.00 0.00 0.00 0.00 0.02 0.02 0.00 0.01 0.02 0.06 0.08 0.05 0.01 0.01 0.00 0.00 0.00 0.00 0.00 0.00 0.00 0.00 0.00 0.00 0.00 0.00 0.00 0.00 0.00 0.00 0.00 0.00 0.00 0.00 0.00 0.00 0.00 0.00 0.00 0.00 0.00 0.00 0.00 0.00
0.00 0.00 0.00 0.00 0.00 0.00 0.00 0.01 0.02 0.01 0.01 0.01 0.01 0.02 0.03 0.01 0.00 0.00 0.01 0.01 0.00 0.00 0.00 0.00 0.00 0.00 0.00 0.00 0.00 0.00 0.00 0.00 0.00 0.00 0.00 0.00 0.00 0.00 0.00 0.00 0.00 0.00 0.00 0.00 0.00 0.00 0.00
0.00 0.00 0.00 0.00 0.00 0.00 0.00 0.00 0.01 0.02 0.02 0.03 0.05 0.06 0.07 0.01 0.00 0.01 0.00 0.00 0.00 0.00 0.00 0.00 0.00 0.00 0.00 0.00 0.00 0.00 0.00 0.00 0.00 0.00 0.00 0.00 0.00 0.00 0.00 0.00 0.00 0.00 0.00 0.00 0.00 0.00 0.00
0.01 0.01 0.00 0.00 0.00 0.00 0.00 0.00 0.00 0.03 0.06 0.08 0.09 0.12 0.14 0.01 0.01 0.00 0.00 0.02 0.02 0.00 0.00 0.00 0.00 0.00 0.00 0.00 0.00 0.00 0.00 0.00 0.00 0.00 0.00 0.00 0.00 0.00 0.00 0.00 0.00 0.00 0.00 0.00 0.00 0.00 0.00
0.00 0.01 0.01 0.00 0.00 0.00 0.00 0.00 0.00 0.02 0.07 0.14 0.16 0.16 0.10 0.02 0.01 0.02 0.01 0.09 0.03 0.00 0.00 0.00 0.00 0.00 0.00 0.00 0.00 0.00 0.00 0.00 0.00 0.00 0.00 0.00 0.00 0.00 0.00 0.00 0.01 0.01 0.01 0.01 0.01 0.00 0.00
0.00 0.00 0.01 0.00 0.00 0.00 0.00 0.00 0.00 0.00 0.03 0.18 0.33 0.21 0.18 0.04 0.03 0.08 0.08 0.07 0.01 0.00 0.00 0.00 0.00 0.00 0.00 0.00 0.00 0.00 0.00 0.00 0.00 0.00 0.00 0.00 0.00 0.00 0.00 0.02 0.04 0.01 0.01 0.00 0.00 0.00 0.00
0.01 0.00 0.00 0.00 0.00 0.00 0.00 0.00 0.00 0.00 0.02 0.15 0.33 0.25 0.13 0.06 0.12 0.28 0.21 0.04 0.00 0.00 0.00 0.00 0.00 0.00 0.00 0.00 0.00 0.00 0.00 0.00 0.00 0.00 0.00 0.00 0.00 0.00 0.00 0.01 0.01 0.01 0.00 0.00 0.00 0.03 0.02
0.00 0.00 0.00 0.00 0.00 0.00 0.00 0.00 0.00 0.00 0.02 0.22 0.35 0.36 0.10 0.14 0.27 0.54 0.46 0.05 0.00 0.00 0.00 0.00 0.00 0.00 0.00 0.00 0.00 0.01 0.01 0.01 0.01 0.02 0.02 0.03 0.04 0.04 0.07 0.04 0.03 0.01 0.00 0.00 0.02 0.04 0.06
0.01 0.00 0.00 0.01 0.01 0.00 0.00 0.00 0.00 0.00 0.02 0.23 0.49 0.28 0.17 0.24 0.45 0.41 0.19 0.00 0.00 0.00 0.00 0.00 0.00 0.00 0.00 0.00 0.00 0.05 0.01 0.04 0.04 0.04 0.06 0.07 0.05 0.03 0.06 0.03 0.01 0.00 0.00 0.00 0.06 0.07 0.05
0.01 0.01 0.00 0.00 0.01 0.01 0.01 0.01 0.00 0.00 0.02 0.16 0.42 0.30 0.42 0.22 0.32 0.18 0.02 0.00 0.00 0.00 0.00 0.00 0.00 0.00 0.00 0.01 0.03 0.02 0.05 0.07 0.06 0.04 0.04 0.04 0.06 0.03 0.02 0.01 0.00 0.00 0.00 0.00 0.02 0.09 0.11
0.02 0.02 0.01 0.01 0.01 0.02 0.01 0.02 0.02 0.01 0.01 0.16 0.33 0.36 0.78 0.70 0.13 0.03 0.01 0.01 0.00 0.00 0.00 0.00 0.00 0.01 0.02 0.03 0.02 0.04 0.04 0.06 0.05 0.07 0.06 0.05 0.04 0.05 0.04 0.01 0.03 0.07 0.02 0.01 0.04 0.13 0.04
0.02 0.03 0.02 0.02 0.02 0.02 0.03 0.03 0.04 0.01 0.03 0.29 0.54 0.32 0.27 0.48 0.17 0.03 0.01 0.01 0.00 0.00 0.00 0.00 0.00 0.03 0.04 0.04 0.01 0.04 0.05 0.04 0.04 0.03 0.05 0.09 0.12 0.10 0.04 0.00 0.01 0.00 0.00 0.01 0.03 0.03 0.03
0.02 0.02 0.02 0.03 0.03 0.04 0.06 0.06 0.07 0.04 0.08 0.48 0.57 0.39 0.12 0.05 0.02 0.04 0.04 0.01 0.00 0.00 0.00 0.00 0.00 0.01 0.02 0.04 0.06 0.06 0.06 0.08 0.11 0.08 0.10 0.12 0.12 0.05 0.01 0.00 0.00 0.00 0.00 0.00 0.00 0.00 0.00
0.03 0.02 0.01 0.03 0.04 0.04 0.06 0.07 0.08 0.09 0.15 0.36 0.56 0.39 0.13 0.06 0.04 0.06 0.02 0.01 0.01 0.02 0.00 0.00 0.00 0.02 0.03 0.02 0.04 0.08 0.08 0.06 0.06 0.04 0.02 0.02 0.02 0.05 0.04 0.01 0.01 0.02 0.00 0.00 0.00 0.00 0.00
0.03 0.03 0.02 0.02 0.05 0.07 0.08 0.09 0.07 0.04 0.09 0.25 0.28 0.38 0.45 0.21 0.06 0.03 0.01 0.02 0.01 0.02 0.02 0.01 0.02 0.02 0.01 0.02 0.03 0.03 0.03 0.02 0.01 0.02 0.03 0.03 0.04 0.15 0.14 0.08 0.11 0.01 0.00 0.00 0.00 0.00 0.00
0.04 0.04 0.05 0.04 0.05 0.08 0.09 0.11 0.09 0.03 0.08 0.27 0.24 0.27 0.43 0.33 0.14 0.03 0.01 0.01 0.03 0.04 0.05 0.06 0.05 0.03 0.03 0.05 0.06 0.07 0.05 0.03 0.01 0.01 0.01 0.01 0.05 0.24 0.33 0.20 0.04 0.00 0.00 0.00 0.00 0.00 0.00
0.08 0.07 0.07 0.06 0.05 0.08 0.08 0.10 0.09 0.06 0.13 0.16 0.32 0.35 0.38 0.36 0.16 0.10 0.08 0.03 0.02 0.03 0.05 0.06 0.06 0.02 0.01 0.04 0.10 0.15 0.09 0.04 0.04 0.01 0.01 0.01 0.04 0.21 0.35 0.29 0.07 0.00 0.00 0.00 0.00 0.00 0.00
0.08 0.10 0.09 0.09 0.07 0.07 0.10 0.08 0.09 0.07 0.13 0.13 0.21 0.38 0.47 0.52 0.22 0.05 0.13 0.12 0.04 0.04 0.05 0.05 0.02 0.03 0.06 0.13 0.18 0.15 0.08 0.03 0.04 0.02 0.02 0.02 0.05 0.15 0.19 0.43 0.14 0.00 0.00 0.00 0.02 0.01 0.00
0.08 0.10 0.11 0.11 0.11 0.09 0.10 0.09 0.09 0.08 0.12 0.17 0.17 0.40 0.53 0.53 0.32 0.14 0.07 0.09 0.09 0.12 0.18 0.12 0.05 0.09 0.12 0.20 0.28 0.23 0.12 0.05 0.01 0.00 0.02 0.09 0.13 0.15 0.18 0.42 0.16 0.00 0.00 0.00 0.00 0.00 0.00
0.09 0.10 0.12 0.12 0.12 0.13 0.12 0.10 0.09 0.09 0.12 0.25 0.27 0.28 0.64 0.62 0.46 0.18 0.12 0.07 0.07 0.08 0.12 0.15 0.15 0.12 0.10 0.18 0.23 0.16 0.18 0.12 0.03 0.05 0.01 0.15 0.11 0.07 0.13 0.08 0.00 0.00 0.00 0.00 0.00 0.00 0.00